Location: Casco Volunteer Fire Department
(44.5576°N, 87.6146°W)
Time: 05:17:16
(UTC+00:00)

IRS-P3 - Pass Details

Date: 22 January 2026
Orbit: 811 x 815 km, 99.0° (Epoch: 10 February)

Event Time Altitude Azimuth Distance (km) Brightness Sun altitude
Rises 23:24:09 0° 151° (SSE) 3,319 7.2 -7.1°
Reaches altitude 10° 23:26:31 10° 148° (SSE) 2,392 6.4 -7.5°
Maximum altitude 23:31:41 57° 70° (ENE) 952 4.2 -8.3°
Drops below altitude 10° 23:36:53 10° 353° (N) 2,409 6.5 -9.2°
Sets 23:39:16 0° 350° (N) 3,346 7.2 -9.6°
